Current Weather Conditions: station 63103

sailwx.info

Wind from 270 at 29 knots

Wave height 6.2 meters (20 feet), 8 second period

Air temperature 6.8° C
Dewpoint -0.5° C

Last reported at 2017-Nov-24 12:00 UTC.
Time now 2017-Nov-24 13:17 UTC

Location: N 61°12' E 001°06'.
View on Google Maps.

See reports from other nearby stations

  
Tides and Currents Weather Stations Pressure Air Temp Water Temp Dewpoint Dewpoint Depression Visibility Wind Speed Wind Dir Waves Ship Positions
date/time (UTC)wind fromknots sea level pressurealtimeterstation pressurevisibilityair tempwater tempwave heightnotes
2017-Nov-24 12:00 270 29 6.8 6.2
2017-Nov-24 11:00 270 33 6.4 6.0
2017-Nov-24 10:00 270 34 5.5 6.0
2017-Nov-24 09:00 270 33 6.4 6.2
2017-Nov-24 08:00 260 34 5.2 5.8
2017-Nov-24 07:00 260 35 5.8 6.3
2017-Nov-24 06:00 270 35 6.9 5.9
2017-Nov-24 05:00 270 34 6.8 5.9
2017-Nov-24 04:00 260 35 6.4 6.1
2017-Nov-24 03:00 270 39 6.2 5.7
2017-Nov-23 19:00 260 27 5.7 3.7
2017-Nov-23 18:00 260 27 6.2 3.7
2017-Nov-23 17:00 280 25 6.2 3.4
2017-Nov-23 16:00 300 20 5.5 3.4
2017-Nov-23 15:00 310 19 5.5 3.2
2017-Nov-23 14:00 300 13 5.4 3.0
2017-Nov-23 13:00 280 13 5.7 3.4
2017-Nov-23 12:00 300 8 5.6 3.6
2017-Nov-23 11:00 300 9 5.1 3.0
2017-Nov-23 10:00 310 9 5.4 2.7
2017-Nov-23 09:00 320 13 5.6 2.6
2017-Nov-23 08:00 340 9 4.8 2.4
2017-Nov-23 07:00 330 8 5.3 2.7
2017-Nov-23 06:00 340 13 5.0 2.6
2017-Nov-23 05:00 320 13 4.4 2.6
2017-Nov-23 04:00 340 14 4.9 2.8
2017-Nov-23 03:00 340 15 5.1 2.8
2017-Nov-23 02:00 340 14 5.1 2.9
2017-Nov-23 01:00 350 17 5.0 3.0
2017-Nov-23 00:00 350 18 5.6 3.1
2017-Nov-22 23:00 360 18 5.1 3.6
2017-Nov-22 22:00 350 18 5.3 3.4
2017-Nov-22 21:00 010 18 5.9 3.5
2017-Nov-22 20:00 010 21 5.7 4.0
2017-Nov-22 19:00 010 25 5.6 3.9
2017-Nov-22 18:00 020 27 5.0 4.3
2017-Nov-22 17:00 020 28 4.6 4.2
2017-Nov-22 16:00 030 28 4.5 4.4
2017-Nov-22 15:00 030 31 4.1 4.8
2017-Nov-22 14:00 040 27 4.4 4.6
2017-Nov-22 13:00 040 25 4.1 4.7